Regional Weather Roundup
Issued by NWS Huntsville, AL

Home | Current Version | Previous Version | Text Only | Print | Product List | Glossary On
Versions: 1 2 3 4 5 6 7 8 9 10 11 12 13 14 15 16 17 18 19 20 21 22 23 24 25 26 27 28 29 30 31 32 33 34 35 36 37 38 39 40 41 42 43 44 45 46 47 48 49 50
000
ASUS44 KHUN 051210
RWRHUN

WEATHER ROUNDUP FOR THE TENNESSEE VALLEY
NATIONAL WEATHER SERVICE HUNTSVILLE AL
700 AM CDT TUE MAY 05 2015

ALZ001>004-051300-
NORTHWEST ALABAMA

CITY           SKY/WX    TMP DP  RH WIND       PRES   REMARKS
COURTLAND HCN    N/A     54 N/A N/A CALM        N/A
BANKHEAD NF      N/A     57  53  88 CALM        N/A
RUSSELLVILLE     N/A     54 N/A N/A MISG        N/A
SHOALS AIRPORT SUNNY     59  55  87 CALM      30.28R
6HR MIN TEMP:  54; 6HR MAX TEMP:  61;

SHOALS TVA RES   N/A     55 N/A N/A MISG        N/A
$$

ALZ005>007-016-051300-
NORTH CENTRAL ALABAMA

CITY           SKY/WX    TMP DP  RH WIND       PRES   REMARKS
CULLMAN AG STN   N/A     54 N/A N/A CALM        N/A
DECATUR AP     SUNNY     57  55  93 CALM      30.30R
6HR MIN TEMP:  52; 6HR MAX TEMP:  59;

HUNTSVILLE AP  SUNNY     61  55  81 SE5       30.29R
6HR MIN TEMP:  58; 6HR MAX TEMP:  65;

HUN NWS/UAH      N/A     62  54  74 SE1         N/A
MERIDIANVILLE  SUNNY     54  50  87 CALM      30.30R
REDSTONE ARSN  SUNNY     60  56  87 SE5       30.29R
VINEMONT AP    FAIR      56  53  90 CALM      30.32R
$$

ALZ008>010-051300-
NORTHEAST ALABAMA

CITY           SKY/WX    TMP DP  RH WIND       PRES   REMARKS
ALBERTVILLE    SUNNY     61  57  88 E5        30.31R
FORT PAYNE     SUNNY     52  48  87 CALM      30.32R
SCOTTSBORO HCN   N/A     52 N/A N/A MISG        N/A
VALLEY HEAD      N/A     50 N/A N/A MISG        N/A
$$

TNZ076-096-097-051300-
SOUTHEASTERN MIDDLE TENNESSEE

CITY           SKY/WX    TMP DP  RH WIND       PRES   REMARKS
TULLAHOMA      SUNNY     55  52  88 CALM      30.32R
WINCHESTER     SUNNY     61  54  77 E6        30.32R
$$

...SURROUNDING SITES...

CITY           SKY/WX    TMP DP  RH WIND       PRES   REMARKS
ATLANTA        SUNNY     63  55  75 CALM      30.34R
ANNISTON       SUNNY     60  53  77 E5        30.32R HAZE
BIRMINGHAM     SUNNY     65  54  67 NE5       30.32R
CHATTANOOGA    MOSUNNY   57  54  89 CALM      30.34R
DALTON         SUNNY     55  55 100 CALM      30.35R
GADSDEN        SUNNY    N/A N/A N/A CALM      30.31R
GOLDEN TRNGL   SUNNY     59  54  82 CALM      30.24R
HALEYVILLE       N/A     55  55 100 MISG      30.31R
JACKSON TN     SUNNY     57  54  89 E3        30.24R
LEWISBURG      FAIR      51  49  93 CALM      30.28R
MEMPHIS        MOCLDY    67  56  67 S7        30.22R
NASHVILLE      SUNNY     58  54  86 S3        30.29R
OXFORD MS      LGT RAIN  63  55  77 CALM      30.26R
ROME           SUNNY     56  53  90 CALM      30.34R
SAVANNAH       SUNNY     57  32  38 CALM      30.26R
TUPELO         SUNNY     59  54  83 NE3       30.25R
TUSCALOOSA     SUNNY     59  56  89 NE3       30.27R FOG
$$

...GULF COAST WEATHER...

CITY           SKY/WX    TMP DP  RH WIND       PRES   REMARKS
GULFPORT       PTCLDY    66  61  84 NE5       30.18R
PASCAGOULA     SUNNY     64  62  93 NE6       30.20R
MOBILE         MOSUNNY   62  60  93 NE6       30.22R
GULF SHORES    SUNNY     63  60  91 NE3       30.20R
PENSACOLA      SUNNY     67  61  81 NE7       30.20R
DESTIN         MOSUNNY   68  62  81 E5        30.22R
PANAMA CITY    SUNNY     65  59  81 E7        30.22R
APPALACHICOLA  SUNNY     67  60  78 NE7       30.21R
$$



USA.gov is the U.S. government's official web portal to all federal, state and local government web resources and services.